Location: Clarion
(42.7316°N, 93.7330°W)
Time: 08:27:14
(UTC+00:00)

Cosmos 2369 - Pass Details

Date: 22 April 2026
Orbit: 837 x 855 km, 71.0° (Epoch: 17 May)

Event Time Altitude Azimuth Distance (km) Brightness Sun altitude
Rises 07:17:36 0° 336° (NNW) 3,419 7.5 -33.1°
Reaches altitude 10° 07:20:04 10° 338° (NNW) 2,482 6.6 -33.0°
Enters shadow 07:24:11 49° 348° (NNW) 1,090 4.4 -32.7°
